This demonstration page uses our WeatherBlox Daily Observations layout. Learn more.

Left ArrowRight Arrow

Hourly Observations for March 27, 2015

Temp ( °F °C ) Dew Point ( °F °C ) Humidity (%) Winds ( mph kmh ) Pressure ( in mb ) Visibility ( mi km ) Precip ( " mm )
12:51 am 00:51 Clear 49 9.4 23 -5 36 36 E 3 6 30.10 1019 10 16 0.00 0.00
1:51 am 01:51 Clear 47 8.3 23 -5 39 39 Calm 30.09 1019 10 16 0.00 0.00
2:51 am 02:51 Clear 46 7.8 23 -5 40 40 NW 3 6 30.09 1019 10 16 0.00 0.00
3:51 am 03:51 Clear 49 9.4 24 -4.4 38 38 Calm 30.08 1019 10 16 0.00 0.00
4:51 am 04:51 Clear 43 6.1 24 -4.4 47 47 N 3 6 30.11 1020 10 16 0.00 0.00
5:51 am 05:51 Clear 48 8.9 23 -5 37 37 WNW 3 6 30.11 1020 10 16 0.00 0.00
6:51 am 06:51 Sunny 45 7.2 26 -3.3 48 48 Calm 30.15 1021 10 16 0.00 0.00
7:51 am 07:51 Sunny 53 11.7 27 -2.8 37 37 S 6 9 30.16 1022 10 16 0.00 0.00
8:51 am 08:51 Sunny 63 17.2 25 -3.9 24 24 VRB 7 11 30.17 1022 10 16 0.00 0.00
9:51 am 09:51 Sunny 68 20 25 -3.9 20 20 SE 8 13 30.16 1022 10 16 0.00 0.00
10:51 am 10:51 Sunny 72 22.2 26 -3.3 18 18 SE 7 11 30.14 1021 10 16 0.00 0.00
11:51 am 11:51 Sunny 76 24.4 24 -4.4 14 14 S 7 11 30.10 1019 10 16 0.00 0.00
12:51 pm 12:51 Sunny 79 26.1 21 -6.1 11 11 S 6 9 30.06 1018 10 16 0.00 0.00
1:51 pm 13:51 Sunny 82 27.8 19 -7.2 9 9 VRB 5 7 30.02 1017 10 16 0.00 0.00
2:51 pm 14:51 Sunny 84 28.9 17 -8.3 8 8 VRB 7 11 29.98 1015 10 16 0.00 0.00
3:51 pm 15:51 Sunny 85 29.4 13 -10.6 7 7 W 9 15 29.95 1014 10 16 0.00 0.00
4:51 pm 16:51 Sunny 86 30 14 -10 7 7 WNW 8 13 29.94 1014 10 16 0.00 0.00
5:51 pm 17:51 Sunny 84 28.9 18 -7.8 8 8 W 10 17 29.93 1014 10 16 0.00 0.00
6:51 pm 18:51 Clear 75 23.9 21 -6.1 13 13 WNW 12 19 29.95 1014 10 16 0.00 0.00
7:51 pm 19:51 Clear 69 20.6 17 -8.3 14 14 NNW 5 7 29.96 1015 10 16 0.00 0.00
8:51 pm 20:51 Clear 72 22.2 14 -10 11 11 WNW 5 7 29.96 1015 10 16 0.00 0.00
9:51 pm 21:51 Clear 67 19.4 11 -11.7 11 11 NW 7 11 29.98 1015 10 16 0.00 0.00
10:51 pm 22:51 Clear 57 13.9 16 -8.9 20 20 Calm 30.01 1016 10 16 0.00 0.00
11:51 pm 23:51 Clear 56 13.3 18 -7.8 22 22 Calm 30.00 1016 10 16 0.00 0.00

Powered by AerisWeather